When you browse on this site, cookies collect data to enhance your experience and personalize the content and advertising you see.
Visit our Privacy Policy to learn more. By continuing to use the site, you agree to this use of cookies and data.
  • In Österreich
  • Länderverzeichnis
  • Für 7 Tage
  • Wassertemperatur
  • Wetterkarte
  • News
  • Widgets
  • user-avatar
    Anmelden

    Stündliche Wetter Weliko Tarnovo

    Heute, 20 Oktober, Sonntag

    Zeit Temperatur Niederschläge Wind Luftdruck Luftfeuchtigkeit
    00:00 +18°C° 0 mm 1 m/S 742 mmHg 65%
    01:00 +16°C° 0 mm 1 m/S 742 mmHg 67%
    02:00 +16°C° 0 mm 1 m/S 742 mmHg 71%
    03:00 +16°C° 0 mm 1 m/S 742 mmHg 72%
    04:00 +15°C° 0 mm 1 m/S 742 mmHg 73%
    05:00 +15°C° 0 mm 1 m/S 742 mmHg 75%
    06:00 +16°C° 0 mm 1 m/S 742 mmHg 72%
    07:00 +18°C° 0 mm 1 m/S 742 mmHg 68%
    08:00 +19°C° 0 mm 1 m/S 743 mmHg 63%
    09:00 +21°C° 0 mm 1 m/S 743 mmHg 56%
    10:00 +23°C° 0 mm 1 m/S 743 mmHg 49%
    11:00 +26°C° 0 mm 1 m/S 743 mmHg 41%
    12:00 +26°C° 0 mm 1 m/S 743 mmHg 39%
    13:00 +27°C° 0 mm 1 m/S 743 mmHg 37%
    14:00 +28°C° 0 mm 1 m/S 743 mmHg 35%
    15:00 +26°C° 0 mm 1 m/S 743 mmHg 39%
    16:00 +25°C° 0 mm 1 m/S 742 mmHg 43%
    17:00 +24°C° 0 mm 1 m/S 742 mmHg 46%
    18:00 +23°C° 0 mm 1 m/S 742 mmHg 52%
    19:00 +21°C° 0 mm 1 m/S 743 mmHg 57%
    20:00 +20°C° 0 mm 1 m/S 743 mmHg 62%
    21:00 +19°C° 0 mm 1 m/S 743 mmHg 64%
    22:00 +19°C° 0 mm 1 m/S 743 mmHg 66%
    23:00 +18°C° 0 mm 1 m/S 743 mmHg 68%

    Morgen, 21 Oktober, Montag

    Zeit Temperatur Niederschläge Wind Luftdruck Luftfeuchtigkeit
    00:00 +18°C° 0 mm 1 m/S 743 mmHg 69%
    01:00 +18°C° 0 mm 1 m/S 743 mmHg 70%
    02:00 +16°C° 0 mm 1 m/S 743 mmHg 71%
    03:00 +16°C° 0 mm 1 m/S 743 mmHg 71%
    04:00 +16°C° 0 mm 1 m/S 743 mmHg 72%
    05:00 +15°C° 0 mm 0 m/S 743 mmHg 72%
    06:00 +16°C° 0 mm 0 m/S 743 mmHg 69%
    07:00 +16°C° 0 mm 0 m/S 744 mmHg 65%
    08:00 +17°C° 0 mm 0 m/S 744 mmHg 62%
    09:00 +19°C° 0 mm 0 m/S 744 mmHg 56%
    10:00 +23°C° 0 mm 1 m/S 744 mmHg 50%
    11:00 +25°C° 0 mm 1 m/S 744 mmHg 43%
    12:00 +26°C° 0 mm 1 m/S 744 mmHg 41%
    13:00 +27°C° 0 mm 2 m/S 744 mmHg 39%
    14:00 +27°C° 0 mm 2 m/S 744 mmHg 36%
    15:00 +26°C° 0 mm 2 m/S 743 mmHg 40%
    16:00 +25°C° 0 mm 1 m/S 743 mmHg 43%
    17:00 +24°C° 0 mm 1 m/S 743 mmHg 46%
    18:00 +22°C° 0 mm 1 m/S 743 mmHg 50%
    19:00 +21°C° 0 mm 1 m/S 743 mmHg 53%
    20:00 +20°C° 0 mm 1 m/S 743 mmHg 57%
    21:00 +19°C° 0 mm 1 m/S 743 mmHg 58%
    22:00 +19°C° 0 mm 1 m/S 744 mmHg 60%
    23:00 +18°C° 0 mm 1 m/S 744 mmHg 61%

    übermorgen, 22 Oktober, Dienstag

    Zeit Temperatur Niederschläge Wind Luftdruck Luftfeuchtigkeit
    00:00 +18°C° 0 mm 1 m/S 744 mmHg 63%
    01:00 +15°C° 0 mm 0 m/S 744 mmHg 64%
    02:00 +15°C° 0 mm 0 m/S 744 mmHg 65%
    03:00 +15°C° 0 mm 0 m/S 744 mmHg 67%
    04:00 +14°C° 0 mm 0 m/S 744 mmHg 69%
    05:00 +14°C° 0 mm 0 m/S 744 mmHg 70%
    06:00 +15°C° 0 mm 0 m/S 744 mmHg 68%
    07:00 +15°C° 0 mm 0 m/S 744 mmHg 65%
    08:00 +16°C° 0 mm 0 m/S 744 mmHg 63%
    09:00 +18°C° 0 mm 0 m/S 744 mmHg 56%
    10:00 +22°C° 0 mm 1 m/S 745 mmHg 49%
    11:00 +24°C° 0 mm 1 m/S 745 mmHg 41%
    12:00 +25°C° 0 mm 1 m/S 745 mmHg 37%
    13:00 +26°C° 0 mm 2 m/S 744 mmHg 34%
    14:00 +26°C° 0 mm 2 m/S 744 mmHg 30%
    15:00 +25°C° 0 mm 2 m/S 744 mmHg 32%
    16:00 +24°C° 0 mm 1 m/S 744 mmHg 35%
    17:00 +22°C° 0 mm 1 m/S 743 mmHg 38%
    18:00 +21°C° 0 mm 1 m/S 744 mmHg 42%
    19:00 +20°C° 0 mm 1 m/S 744 mmHg 45%
    20:00 +18°C° 0 mm 1 m/S 744 mmHg 49%
    21:00 +18°C° 0 mm 1 m/S 744 mmHg 52%
    22:00 +16°C° 0 mm 1 m/S 744 mmHg 55%
    23:00 +16°C° 0 mm 1 m/S 744 mmHg 58%

    23 Oktober, Mittwoch

    Zeit Temperatur Niederschläge Wind Luftdruck Luftfeuchtigkeit
    00:00 +15°C° 0 mm 1 m/S 744 mmHg 60%
    01:00 +15°C° 0 mm 1 m/S 744 mmHg 61%
    02:00 +14°C° 0 mm 1 m/S 744 mmHg 63%
    03:00 +14°C° 0 mm 1 m/S 744 mmHg 63%
    04:00 +12°C° 0 mm 0 m/S 744 mmHg 63%
    05:00 +12°C° 0 mm 0 m/S 744 mmHg 63%
    06:00 +13°C° 0 mm 0 m/S 744 mmHg 59%
    07:00 +14°C° 0 mm 0 m/S 744 mmHg 56%
    08:00 +14°C° 0 mm 0 m/S 744 mmHg 53%
    09:00 +19°C° 0 mm 1 m/S 744 mmHg 45%
    10:00 +21°C° 0 mm 1 m/S 744 mmHg 38%
    11:00 +24°C° 0 mm 1 m/S 744 mmHg 31%
    12:00 +25°C° 0 mm 1 m/S 743 mmHg 29%
    13:00 +26°C° 0 mm 1 m/S 743 mmHg 27%
    14:00 +26°C° 0 mm 1 m/S 743 mmHg 26%
    15:00 +25°C° 0 mm 1 m/S 742 mmHg 30%
    16:00 +23°C° 0 mm 1 m/S 742 mmHg 34%
    17:00 +22°C° 0 mm 1 m/S 742 mmHg 38%
    18:00 +21°C° 0 mm 1 m/S 742 mmHg 41%
    19:00 +19°C° 0 mm 1 m/S 742 mmHg 45%
    20:00 +18°C° 0 mm 1 m/S 742 mmHg 48%
    21:00 +16°C° 0 mm 1 m/S 742 mmHg 51%
    22:00 +16°C° 0 mm 1 m/S 742 mmHg 53%
    23:00 +15°C° 0 mm 1 m/S 742 mmHg 56%

    24 Oktober, Donnerstag

    Zeit Temperatur Niederschläge Wind Luftdruck Luftfeuchtigkeit
    00:00 +15°C° 0 mm 1 m/S 742 mmHg 58%
    01:00 +15°C° 0 mm 1 m/S 742 mmHg 59%
    02:00 +14°C° 0 mm 1 m/S 742 mmHg 61%
    03:00 +14°C° 0 mm 1 m/S 742 mmHg 61%
    04:00 +14°C° 0 mm 1 m/S 741 mmHg 62%
    05:00 +12°C° 0 mm 0 m/S 741 mmHg 62%
    06:00 +13°C° 0 mm 0 m/S 741 mmHg 60%
    07:00 +14°C° 0 mm 0 m/S 741 mmHg 58%
    08:00 +15°C° 0 mm 0 m/S 741 mmHg 55%
    09:00 +19°C° 0 mm 1 m/S 741 mmHg 48%
    10:00 +21°C° 0 mm 1 m/S 741 mmHg 41%
    11:00 +24°C° 0 mm 1 m/S 741 mmHg 34%
    12:00 +24°C° 0 mm 1 m/S 741 mmHg 31%
    13:00 +25°C° 0 mm 1 m/S 741 mmHg 29%
    14:00 +26°C° 0 mm 2 m/S 741 mmHg 26%
    15:00 +25°C° 0 mm 2 m/S 740 mmHg 30%
    16:00 +23°C° 0 mm 1 m/S 740 mmHg 34%
    17:00 +22°C° 0 mm 1 m/S 739 mmHg 38%
    18:00 +20°C° 0 mm 1 m/S 739 mmHg 42%
    19:00 +19°C° 0 mm 1 m/S 740 mmHg 46%
    20:00 +16°C° 0 mm 1 m/S 740 mmHg 51%
    21:00 +16°C° 0 mm 1 m/S 740 mmHg 52%
    22:00 +15°C° 0 mm 1 m/S 740 mmHg 54%
    23:00 +15°C° 0 mm 1 m/S 740 mmHg 56%

    25 Oktober, Freitag

    Zeit Temperatur Niederschläge Wind Luftdruck Luftfeuchtigkeit
    00:00 +14°C° 0 mm 1 m/S 740 mmHg 58%
    01:00 +14°C° 0 mm 1 m/S 740 mmHg 59%
    02:00 +14°C° 0 mm 1 m/S 740 mmHg 61%
    03:00 +13°C° 0 mm 1 m/S 740 mmHg 62%
    04:00 +13°C° 0 mm 1 m/S 739 mmHg 62%
    05:00 +12°C° 0 mm 0 m/S 739 mmHg 63%
    06:00 +13°C° 0 mm 0 m/S 740 mmHg 61%
    07:00 +13°C° 0 mm 0 m/S 740 mmHg 59%
    08:00 +14°C° 0 mm 0 m/S 740 mmHg 56%
    09:00 +16°C° 0 mm 0 m/S 740 mmHg 50%
    10:00 +19°C° 0 mm 0 m/S 740 mmHg 43%
    11:00 +23°C° 0 mm 1 m/S 740 mmHg 37%
    12:00 +24°C° 0 mm 1 m/S 740 mmHg 34%
    13:00 +24°C° 0 mm 1 m/S 740 mmHg 32%
    14:00 +25°C° 0 mm 1 m/S 740 mmHg 30%
    15:00 +24°C° 0 mm 1 m/S 740 mmHg 33%
    16:00 +22°C° 0 mm 1 m/S 739 mmHg 36%
    17:00 +21°C° 0 mm 1 m/S 739 mmHg 39%
    18:00 +20°C° 0 mm 1 m/S 740 mmHg 42%
    19:00 +18°C° 0 mm 1 m/S 740 mmHg 45%
    20:00 +16°C° 0 mm 1 m/S 740 mmHg 48%
    21:00 +15°C° 0 mm 1 m/S 740 mmHg 50%
    22:00 +15°C° 0 mm 1 m/S 740 mmHg 51%
    23:00 +15°C° 0 mm 1 m/S 741 mmHg 53%
    Mehr zeigen